[[{"header":{"parameterUnit":"m.s-1","parameterCategory":1,"la1":30.2991,"la2":30.254,"lo1":-89.0895,"lo2":-89.0444,"dy":0.0017,"dx":0.0017,"nx":28,"ny":28,"refTime":"2023-09-12T03:00:00:Z","depth":0,"parameterNumber":2,"parameterNumberName":"U-component_of_WINDS"},"data":[0,0,0,0,0,0,0,0,0,0,0,0,0,0,0,0,0,0,0,0,0,0,0,0,0,0,0,0,0,0,0,0,0,0,0,0,0,0,0,0,0,0,0,0,0,0,0,0,0,0,0,0,0,0,0,0,0,0,3.7846,3.7847,0,3.7997,3.7998,3.8,3.7941,3.7937,3.7934,3.793,3.8086,3.8093,3.8101,0,0,0,0,0,0,0,0,0,0,0,0,0,3.7506,3.7512,3.7846,3.7848,3.7849,3.7996,3.7998,3.8,3.7941,3.7937,3.7933,3.7929,3.8084,3.8092,3.8101,0,0,0,0,0,0,0,0,0,0,0,0,0,3.7655,3.7514,3.7845,3.7838,3.7838,3.7996,3.7999,3.8001,3.7942,3.7937,3.7932,3.7927,3.8081,3.8091,3.8102,3.8277,0,0,3.8136,3.8141,0,0,0,0,0,0,0,0,3.7646,3.7667,3.7837,3.7838,3.784,3.7944,3.7936,3.8094,3.7943,3.7903,3.793,3.7924,3.8043,3.8057,3.8097,3.8284,3.8291,3.8137,3.8144,3.8149,3.8152,0,0,0,0,0,0,0,3.7636,3.766,3.7905,3.7839,3.7841,3.7826,3.7842,3.7965,3.8001,3.7906,3.7902,3.7921,3.8043,3.8086,3.81,3.8293,3.8137,3.8147,3.8154,3.8158,3.8629,3.8635,0,0,0,0,0,0,3.7625,3.7652,3.7901,3.791,3.7728,3.7837,3.7854,3.7916,3.7999,3.8007,3.7925,3.7917,3.807,3.8087,3.8106,3.8314,3.8149,3.8159,3.8166,3.8623,3.863,3.8637,0,0,0,0,0,0,3.7618,3.7648,3.7894,3.778,3.781,3.7848,3.7919,3.7922,3.7965,3.8014,3.802,3.7963,3.8067,3.809,3.8234,3.8318,3.8164,3.8175,3.8616,3.8625,3.8633,3.8733,0,0,0,0,0,0,3.7609,3.7646,3.7713,3.7782,3.7817,3.8021,3.7924,3.7929,3.7984,3.7976,3.8051,3.8058,3.8064,3.8218,3.8245,3.8331,3.8183,3.8609,3.862,3.8631,3.8722,3.8744,3.8762,0,0,0,0,0,3.7597,3.7735,3.7717,3.7747,3.7901,3.8026,3.8046,3.805,3.7992,3.8059,3.809,3.8056,3.8305,3.8233,3.8264,3.8354,3.8604,3.8617,3.863,3.8713,3.8739,3.8762,0,0,0,0,0,0,3.7676,3.7744,3.7724,3.7889,3.7952,3.8016,3.8101,3.8078,3.8159,3.8147,3.8149,3.8166,3.8315,3.8349,3.8268,3.8526,3.8445,3.8465,3.8498,3.8524,3.8543,3.8532,3.8193,0,0,0,0,0,3.7713,3.7808,3.7863,3.8003,3.8036,3.8063,3.8118,3.8115,3.818,3.8207,3.8248,3.8313,3.8405,3.8467,3.8555,3.8727,3.8741,3.8804,3.8824,3.884,3.8857,3.8948,3.8976,3.868,3.868,3.8679,0,0,3.7789,3.7838,3.7899,3.802,3.8069,3.8167,3.8086,3.8194,3.8267,3.8223,3.8361,3.8394,3.8467,3.8625,3.8697,3.8658,3.8942,3.8857,3.8869,3.8877,3.8965,3.8993,3.9017,3.8689,3.8687,3.8685,0,0,3.7979,3.8027,3.8148,3.8198,3.8271,3.8288,3.8317,3.8385,3.8404,3.8543,3.8511,3.8598,3.8758,3.8811,3.8858,3.9066,3.9037,3.9095,3.92,3.9289,3.9312,3.9333,3.9405,3.9432,3.9112,3.9112,3.9112,0,3.8065,3.8213,3.8213,3.8324,3.8377,3.8341,3.8463,3.8512,3.8611,3.8649,3.8604,3.8802,3.8849,3.9018,3.9068,3.9109,3.9141,3.9086,3.9309,3.9329,3.9349,3.9418,3.9445,3.9118,3.9118,3.9117,3.9116,0,3.8314,3.8416,3.8505,3.8601,3.8665,3.8781,3.8798,3.8863,3.8854,3.8876,3.9017,3.9071,3.9168,3.9208,3.9202,3.9377,3.935,3.9307,3.9226,3.9383,3.9448,3.9475,3.9127,3.9125,3.9123,3.9122,0,0,3.8559,3.8651,3.8684,3.8726,3.8804,3.8883,3.8997,3.9091,3.9146,3.9216,3.931,3.9446,3.9406,3.946,3.9459,3.9537,3.9696,3.9484,3.9486,3.952,3.989,3.9921,3.9951,3.9678,3.9683,3.9687,3.9883,0,3.8753,3.8952,3.8955,3.9138,3.9231,3.9198,3.9296,3.9355,3.9378,3.9461,3.9486,3.9581,3.9522,3.9554,3.9631,3.9661,3.977,3.9647,3.9765,3.9769,3.9747,3.9986,4.0019,4.0202,3.9909,3.9913,3.9916,0,3.9007,3.9083,3.9275,3.9337,3.9377,3.9466,3.9551,3.9631,3.9696,3.9707,3.9767,3.9753,3.9868,3.9784,3.9942,3.9858,3.9907,3.9929,3.9936,3.9946,3.9852,4.0001,4.026,4.0287,3.9957,3.9953,3.9951,0,3.9164,3.9315,3.9448,3.9485,3.9562,3.9625,3.966,3.972,3.9776,3.9851,3.9887,3.9975,4.0023,4.0092,4.0102,4.004,4.026,4.0177,4.0272,4.0272,4.0319,4.0316,4.0588,4.0353,4.0352,4.0352,4.0351,0,3.9381,3.9499,3.9519,3.9602,3.9732,3.9735,3.9864,3.9894,3.9947,4.0034,4.0011,4.0093,4.0102,4.0187,4.0196,4.0324,4.0346,4.0358,4.0359,4.0359,4.0358,4.039,4.0378,4.0359,4.0358,4.0356,4.0355,0,3.9578,3.9597,3.974,3.98,3.9818,3.9912,3.9963,4.0042,4.0061,4.0171,4.0197,4.0229,4.0327,4.0344,4.046,4.0466,4.0619,4.0608,4.0597,4.0595,4.0688,4.0678,4.099,4.103,4.077,4.0772,4.0774,0,3.9715,3.9805,3.9874,3.993,3.9968,4.0059,4.0115,4.0121,4.018,4.026,4.0328,4.0424,4.05,4.0658,4.0692,4.078,4.0769,4.0872,4.0782,4.078,4.0769,4.0763,4.0771,4.0889,4.0892,4.0894,4.0896,0,3.9954,3.9959,4.0041,4.0126,4.0193,4.0261,4.0325,4.0372,4.0386,4.0454,4.0553,4.0613,4.073,4.0824,4.0912,4.0947,4.0924,4.0924,4.0951,4.0952,4.0941,4.0946,4.0642,4.0917,4.0915,4.0914,4.0912,4.0912,4.0125,4.0202,4.0262,4.0354,4.0402,4.0462,4.0537,4.0566,4.0649,4.0744,4.0742,4.0851,4.0912,4.1027,4.1068,4.1153,4.112,4.1158,4.1168,4.1177,4.1185,4.0928,4.1169,4.1168,4.1168,4.1167,4.1167,0,4.0362,4.0398,4.0483,4.0572,4.0643,4.0615,4.0683,4.0745,4.0841,4.0899,4.0975,4.1088,4.1179,4.1219,4.1308,4.1368,4.136,4.1392,4.1387,4.1395,4.121,4.1177,4.1397,4.1397,4.1397,4.1397,4.1397,4.1397,4.0493,4.0622,4.0633,4.0785,4.0821,4.0926,4.0968,4.1022,4.1069,4.1196,4.1271,4.1296,4.1347,4.144,4.1522,4.1531,4.1564,4.1601,4.1605,4.1431,4.1408,4.1386,4.1355,4.1608,4.1609,4.1782,4.1784,4.1785]},{"header":{"parameterUnit":"m.s-1","parameterCategory":1,"la1":30.2991,"la2":30.254,"lo1":-89.0895,"lo2":-89.0444,"dy":0.0017,"dx":0.0017,"nx":28,"ny":28,"refTime":"2023-09-12T03:00:00:Z","depth":0,"parameterNumber":3,"parameterNumberName":"V-component_of_WINDS"},"data":[0,0,0,0,0,0,0,0,0,0,0,0,0,0,0,0,0,0,0,0,0,0,0,0,0,0,0,0,0,0,0,0,0,0,0,0,0,0,0,0,0,0,0,0,0,0,0,0,0,0,0,0,0,0,0,0,0,0,0.359,0.359,0,0.3559,0.3559,0.3558,0.3512,0.3511,0.351,0.351,0.3479,0.3479,0.3479,0,0,0,0,0,0,0,0,0,0,0,0,0,0.3609,0.3609,0.359,0.359,0.3589,0.3559,0.3558,0.3558,0.3512,0.3511,0.351,0.3509,0.3479,0.3479,0.3479,0,0,0,0,0,0,0,0,0,0,0,0,0,0.3592,0.3609,0.359,0.3563,0.356,0.3559,0.3558,0.3558,0.3512,0.3511,0.351,0.3509,0.3479,0.3479,0.3479,0.3502,0,0,0.3478,0.3478,0,0,0,0,0,0,0,0,0.3593,0.3591,0.3567,0.3564,0.3561,0.3538,0.3554,0.3539,0.3513,0.353,0.351,0.3508,0.35,0.3498,0.3495,0.3501,0.35,0.3478,0.3478,0.3478,0.3478,0,0,0,0,0,0,0,0.3594,0.3592,0.3578,0.3567,0.3563,0.3552,0.3548,0.3551,0.3522,0.3529,0.3525,0.3522,0.3498,0.3495,0.3494,0.3499,0.3478,0.3478,0.3478,0.3478,0.3522,0.3523,0,0,0,0,0,0,0.36,0.3594,0.3579,0.3577,0.3575,0.3552,0.3548,0.3547,0.3522,0.3517,0.3523,0.352,0.3496,0.3494,0.3492,0.3518,0.3478,0.3478,0.3478,0.3521,0.3522,0.3524,0,0,0,0,0,0,0.36,0.3599,0.358,0.3584,0.3581,0.3553,0.3552,0.3547,0.3544,0.3518,0.3513,0.3526,0.3495,0.3492,0.35,0.3516,0.3478,0.3478,0.3519,0.3521,0.3523,0.3569,0,0,0,0,0,0,0.3601,0.3599,0.3608,0.3585,0.3581,0.3588,0.3553,0.3547,0.3544,0.3539,0.3519,0.3514,0.3493,0.35,0.35,0.3515,0.3478,0.3518,0.352,0.3522,0.3566,0.3572,0.3578,0,0,0,0,0,0.3602,0.3623,0.3609,0.3607,0.3591,0.3589,0.3587,0.3563,0.3545,0.3554,0.3537,0.3515,0.3514,0.3501,0.3501,0.3516,0.3517,0.352,0.3522,0.3564,0.3571,0.3578,0,0,0,0,0,0,0.3649,0.3619,0.3603,0.3618,0.3606,0.3582,0.3592,0.3572,0.3566,0.3562,0.3532,0.3528,0.3539,0.3528,0.3514,0.3537,0.3512,0.3515,0.3544,0.3551,0.3556,0.3559,0.3478,0,0,0,0,0,0.3661,0.3662,0.3636,0.3651,0.3646,0.362,0.3618,0.36,0.3587,0.3582,0.3566,0.3555,0.3552,0.3551,0.3547,0.3564,0.3559,0.3574,0.358,0.3585,0.3588,0.3595,0.3601,0.3533,0.3533,0.3533,0,0,0.3686,0.367,0.3673,0.366,0.3649,0.365,0.3616,0.3619,0.362,0.3583,0.3589,0.3576,0.3561,0.3574,0.3578,0.3565,0.3605,0.3588,0.3593,0.3593,0.3599,0.3605,0.3611,0.3535,0.3534,0.3534,0,0,0.3733,0.3721,0.3731,0.3721,0.3704,0.3687,0.3689,0.3667,0.3657,0.3663,0.3635,0.3635,0.3631,0.3621,0.3615,0.3656,0.3636,0.3656,0.3686,0.3694,0.3699,0.3704,0.3718,0.3724,0.3659,0.3659,0.3659,0,0.3766,0.3767,0.3739,0.3744,0.3739,0.3705,0.3715,0.3706,0.369,0.3687,0.3672,0.3665,0.3653,0.3662,0.3672,0.3669,0.367,0.3658,0.3701,0.3705,0.3709,0.3722,0.3728,0.3661,0.3661,0.3661,0.3661,0,0.3808,0.3809,0.382,0.3804,0.38,0.3807,0.3781,0.378,0.3762,0.3746,0.3751,0.3735,0.3726,0.3727,0.371,0.3733,0.3725,0.3706,0.3681,0.3719,0.373,0.3735,0.3665,0.3664,0.3663,0.3663,0,0,0.3885,0.3852,0.3857,0.3849,0.3827,0.3827,0.3833,0.3824,0.3824,0.3813,0.3817,0.3813,0.3795,0.3789,0.377,0.3776,0.3809,0.3756,0.3755,0.3766,0.3833,0.3847,0.3854,0.3795,0.3795,0.3796,0.3834,0,0.3926,0.3934,0.3909,0.3923,0.3923,0.3889,0.3894,0.3881,0.3866,0.3864,0.3847,0.3844,0.3821,0.3816,0.3822,0.3804,0.3822,0.3801,0.3797,0.3798,0.3802,0.386,0.3875,0.3912,0.3838,0.3839,0.384,0,0.3977,0.3968,0.3982,0.3958,0.3957,0.3962,0.3951,0.3949,0.3934,0.3922,0.3915,0.3893,0.3896,0.3871,0.3874,0.3861,0.3858,0.3849,0.3849,0.3848,0.3821,0.386,0.3923,0.3928,0.3847,0.3846,0.3846,0,0.403,0.4022,0.4029,0.4023,0.3996,0.4,0.3989,0.3973,0.3968,0.3959,0.3956,0.3947,0.3942,0.3936,0.3912,0.3896,0.3918,0.3891,0.3908,0.3909,0.3914,0.3914,0.3978,0.3913,0.3913,0.3913,0.3912,0,0.408,0.4089,0.4052,0.4057,0.4066,0.4037,0.4047,0.4033,0.4018,0.4018,0.3989,0.399,0.3958,0.3956,0.3937,0.3942,0.394,0.393,0.3925,0.3933,0.3934,0.3931,0.3928,0.3914,0.3914,0.3913,0.3913,0,0.4142,0.4117,0.4122,0.4096,0.409,0.4098,0.4076,0.4078,0.406,0.4061,0.406,0.4032,0.4027,0.4002,0.3992,0.3979,0.3991,0.3981,0.3996,0.3993,0.4011,0.4009,0.4074,0.4081,0.4012,0.4013,0.4013,0,0.4175,0.4181,0.4156,0.4154,0.4144,0.4141,0.4137,0.4108,0.4104,0.4086,0.4091,0.4084,0.4076,0.407,0.4049,0.4041,0.403,0.4053,0.4028,0.4036,0.4029,0.4029,0.4029,0.4058,0.4059,0.406,0.4061,0,0.4236,0.4223,0.4218,0.4208,0.4203,0.4193,0.4182,0.4183,0.415,0.4148,0.4142,0.4136,0.4125,0.4118,0.4106,0.4094,0.4072,0.4068,0.4072,0.408,0.4088,0.4083,0.401,0.4067,0.4066,0.4066,0.4066,0.4065,0.4284,0.4288,0.427,0.4264,0.4253,0.4243,0.4244,0.4226,0.4221,0.4209,0.4192,0.4189,0.4172,0.4153,0.4143,0.4139,0.4127,0.4132,0.4133,0.4135,0.4138,0.4089,0.4137,0.4137,0.4137,0.4137,0.4136,0,0.4343,0.433,0.4325,0.431,0.4305,0.4284,0.4271,0.4268,0.4266,0.4252,0.4245,0.4238,0.423,0.4208,0.4198,0.42,0.4189,0.4198,0.4198,0.4195,0.4151,0.4148,0.4207,0.4207,0.4207,0.4207,0.4207,0.4207,0.4374,0.4378,0.4363,0.4362,0.4348,0.4345,0.4339,0.4329,0.4317,0.4311,0.4305,0.429,0.4272,0.4261,0.4253,0.4246,0.4244,0.4256,0.4247,0.4205,0.4199,0.4192,0.419,0.4256,0.4256,0.4291,0.4292,0.4292]}]]